{"data":{"norad_id":63400,"epoch":"2026-05-25T01:16:55.812000Z","epoch_age_seconds":67608,"freshness":"FRESH","line1":"1 63400U 25065B   26145.05342375  .00005899  00000+0  22374-3 0  9999","line2":"2 63400  43.0015  35.3989 0001727 268.7874  91.2780 15.27575516 64522","mean_motion":15.27575516,"eccentricity":0.0001727,"inclination_deg":43.0015,"raan_deg":35.3989,"arg_perigee_deg":268.7874,"mean_anomaly_deg":91.278,"bstar":0.00022374,"rev_number":6452,"period_min":94.267025421478,"perigee_km":481.87759362402,"apogee_km":484.24745193919,"semimajor_km":6861.1995227816,"source":"CELESTRAK","updated_at":"2026-05-25T13:38:19.967857Z"}}